[[{"header":{"parameterUnit":"m.s-1","parameterCategory":1,"la1":30.2991,"la2":30.254,"lo1":-89.0895,"lo2":-89.0444,"dy":0.0017,"dx":0.0017,"nx":28,"ny":28,"refTime":"2025-08-22T09:00:00:Z","depth":0,"parameterNumber":2,"parameterNumberName":"U-component_of_WINDS"},"data":[0,0,0,0,0,0,0,0,0,0,0,0,0,0,0,0,0,0,0,0,0,0,0,0,0,0,0,0,0,0,0,0,0,0,0,0,0,0,0,0,0,0,0,0,0,0,0,0,0,0,0,0,0,0,0,0,0,0,1.0721,1.072,0,1.0683,1.0682,1.0682,1.0635,1.0634,1.0634,1.0633,1.0593,1.0593,1.0592,0,0,0,0,0,0,0,0,0,0,0,0,0,1.0752,1.0751,1.0721,1.072,1.072,1.0683,1.0682,1.0682,1.0635,1.0634,1.0633,1.0633,1.0593,1.0593,1.0592,0,0,0,0,0,0,0,0,0,0,0,0,0,1.0728,1.0751,1.0721,1.0692,1.0689,1.0683,1.0682,1.0681,1.0635,1.0634,1.0633,1.0632,1.0593,1.0593,1.0592,1.061,0,0,1.059,1.059,0,0,0,0,0,0,0,0,1.073,1.0727,1.0697,1.0694,1.0691,1.0662,1.0678,1.0658,1.0636,1.0656,1.0633,1.0632,1.0617,1.0614,1.0609,1.0609,1.0607,1.059,1.059,1.059,1.0589,0,0,0,0,0,0,0,1.0731,1.0729,1.0706,1.0696,1.0693,1.0681,1.0676,1.0674,1.0643,1.0654,1.065,1.0647,1.0615,1.061,1.0608,1.0606,1.059,1.059,1.0589,1.0589,1.0617,1.0618,0,0,0,0,0,0,1.0737,1.073,1.0707,1.0704,1.0708,1.0681,1.0676,1.0673,1.0643,1.0637,1.0648,1.0645,1.0612,1.0609,1.0607,1.0625,1.059,1.0589,1.0589,1.0616,1.0617,1.0618,0,0,0,0,0,0,1.0738,1.0736,1.0708,1.0716,1.0712,1.0682,1.0678,1.0672,1.0668,1.0638,1.0632,1.0649,1.0611,1.0607,1.0609,1.0623,1.0589,1.0588,1.0614,1.0616,1.0617,1.0663,0,0,0,0,0,0,1.0739,1.0736,1.0744,1.0717,1.0712,1.0713,1.0679,1.0672,1.0667,1.0663,1.0637,1.0632,1.061,1.0611,1.0609,1.0622,1.0588,1.0613,1.0615,1.0617,1.066,1.0666,1.0671,0,0,0,0,0,1.0741,1.0758,1.0744,1.0742,1.072,1.0713,1.071,1.0685,1.0668,1.0675,1.0655,1.0633,1.0622,1.0611,1.0609,1.0622,1.0612,1.0614,1.0617,1.0657,1.0665,1.0671,0,0,0,0,0,0,1.0787,1.0754,1.0738,1.0748,1.0734,1.0706,1.0713,1.0693,1.0683,1.068,1.0648,1.0642,1.0648,1.0635,1.0624,1.0637,1.0613,1.0616,1.0645,1.0652,1.0657,1.066,1.0587,0,0,0,0,0,1.0798,1.0796,1.0767,1.0778,1.0772,1.0744,1.074,1.0721,1.0705,1.0699,1.068,1.0665,1.0658,1.0654,1.0646,1.0658,1.0651,1.0665,1.0671,1.0675,1.0677,1.0681,1.0686,1.0626,1.0626,1.0626,0,0,1.0821,1.0803,1.0804,1.0787,1.0774,1.0772,1.0739,1.0739,1.0736,1.0699,1.0699,1.0685,1.0666,1.0673,1.0675,1.0662,1.0692,1.0678,1.0682,1.0682,1.0684,1.069,1.0695,1.0628,1.0627,1.0627,0,0,1.0862,1.0849,1.0856,1.0843,1.0824,1.0805,1.0807,1.0782,1.0771,1.0771,1.0742,1.0739,1.0728,1.0715,1.0707,1.0743,1.0721,1.0741,1.0769,1.0773,1.0778,1.0782,1.0793,1.0798,1.0743,1.0743,1.0743,0,1.0893,1.0889,1.0862,1.0863,1.0855,1.0822,1.0828,1.0817,1.0796,1.0792,1.0778,1.0763,1.0748,1.075,1.0759,1.0754,1.0754,1.0744,1.0779,1.0783,1.0786,1.0797,1.0801,1.0746,1.0746,1.0745,1.0745,0,1.0928,1.0926,1.0933,1.0914,1.0908,1.0912,1.0884,1.0881,1.0863,1.0845,1.0845,1.0825,1.0812,1.0812,1.0794,1.0811,1.0804,1.0785,1.0761,1.0795,1.0804,1.0808,1.0749,1.0748,1.0748,1.0747,0,0,1.0997,1.0962,1.0965,1.0955,1.0931,1.0929,1.093,1.0918,1.0915,1.0902,1.0902,1.0893,1.0875,1.0866,1.0846,1.085,1.0877,1.0831,1.083,1.0839,1.0894,1.0907,1.0912,1.0863,1.0864,1.0864,1.0895,0,1.1032,1.1034,1.1009,1.1016,1.1013,1.0981,1.0982,1.0967,1.095,1.0945,1.0926,1.092,1.0897,1.0892,1.0894,1.0874,1.0888,1.0871,1.0861,1.0861,1.0866,1.0917,1.0932,1.0962,1.0898,1.0899,1.0899,0,1.1074,1.1063,1.1071,1.1046,1.1043,1.1045,1.1031,1.1026,1.1008,1.0995,1.0985,1.0963,1.0961,1.0939,1.0936,1.0925,1.0919,1.0909,1.0909,1.0907,1.0882,1.0915,1.0971,1.0975,1.0905,1.0905,1.0904,0,1.1122,1.1109,1.1112,1.1105,1.1076,1.1077,1.1065,1.1046,1.104,1.1027,1.1023,1.101,1.1003,1.0993,1.0967,1.0954,1.0967,1.0942,1.0955,1.0956,1.0959,1.0959,1.1014,1.0957,1.0957,1.0957,1.0957,0,1.1164,1.117,1.1133,1.1135,1.1139,1.111,1.1116,1.11,1.1083,1.1081,1.1052,1.105,1.1016,1.101,1.0989,1.0989,1.0986,1.0975,1.097,1.0977,1.0979,1.0973,1.097,1.0958,1.0958,1.0958,1.0958,0,1.1219,1.1194,1.1195,1.1167,1.116,1.1165,1.1141,1.1141,1.1122,1.1119,1.1116,1.1087,1.1078,1.1051,1.1035,1.1022,1.1027,1.1017,1.1033,1.1029,1.1043,1.1042,1.1095,1.11,1.1042,1.1042,1.1043,0,1.1246,1.125,1.1223,1.1219,1.1208,1.1203,1.1196,1.1167,1.1161,1.1141,1.1142,1.1131,1.1121,1.1107,1.1084,1.1071,1.106,1.1079,1.1058,1.1065,1.1059,1.1059,1.1058,1.1084,1.1085,1.1085,1.1086,0,1.1298,1.1286,1.1278,1.1265,1.1258,1.1247,1.1234,1.1232,1.12,1.1195,1.1185,1.1177,1.1161,1.1149,1.1133,1.1119,1.1097,1.1093,1.1095,1.1103,1.1111,1.1106,1.1045,1.1092,1.1091,1.1091,1.109,1.109,1.1339,1.1341,1.1321,1.1313,1.13,1.1289,1.1287,1.1268,1.126,1.1245,1.1228,1.122,1.12,1.1176,1.1164,1.1156,1.1144,1.1148,1.1148,1.1149,1.1153,1.1113,1.1153,1.1153,1.1153,1.1153,1.1152,0,1.1389,1.1375,1.1367,1.135,1.1343,1.1324,1.1308,1.1303,1.1297,1.1281,1.1271,1.1259,1.1248,1.1224,1.121,1.1208,1.1197,1.1205,1.1205,1.1201,1.1164,1.1164,1.1214,1.1214,1.1214,1.1214,1.1214,1.1214,1.1413,1.1414,1.14,1.1393,1.1379,1.1371,1.1364,1.1352,1.1339,1.1328,1.1319,1.1303,1.1283,1.1267,1.1255,1.1248,1.1244,1.1255,1.1245,1.121,1.1204,1.1199,1.1198,1.1255,1.1255,1.1282,1.1282,1.1282]},{"header":{"parameterUnit":"m.s-1","parameterCategory":1,"la1":30.2991,"la2":30.254,"lo1":-89.0895,"lo2":-89.0444,"dy":0.0017,"dx":0.0017,"nx":28,"ny":28,"refTime":"2025-08-22T09:00:00:Z","depth":0,"parameterNumber":3,"parameterNumberName":"V-component_of_WINDS"},"data":[0,0,0,0,0,0,0,0,0,0,0,0,0,0,0,0,0,0,0,0,0,0,0,0,0,0,0,0,0,0,0,0,0,0,0,0,0,0,0,0,0,0,0,0,0,0,0,0,0,0,0,0,0,0,0,0,0,0,-1.5043,-1.5045,0,-1.5158,-1.5159,-1.516,-1.5186,-1.5185,-1.5184,-1.5184,-1.5301,-1.5304,-1.5308,0,0,0,0,0,0,0,0,0,0,0,0,0,-1.485,-1.4853,-1.5043,-1.5045,-1.5046,-1.5157,-1.5159,-1.5161,-1.5186,-1.5185,-1.5184,-1.5183,-1.5299,-1.5304,-1.5309,0,0,0,0,0,0,0,0,0,0,0,0,0,-1.4946,-1.4854,-1.5043,-1.5072,-1.5076,-1.5157,-1.5159,-1.5161,-1.5186,-1.5185,-1.5184,-1.5183,-1.5298,-1.5303,-1.5309,-1.5369,0,0,-1.5327,-1.5329,0,0,0,0,0,0,0,0,-1.494,-1.4953,-1.5067,-1.5071,-1.5075,-1.5156,-1.5134,-1.5231,-1.5187,-1.5145,-1.5184,-1.5182,-1.5254,-1.5263,-1.5287,-1.5374,-1.5379,-1.5327,-1.5331,-1.5333,-1.5335,0,0,0,0,0,0,0,-1.4933,-1.4948,-1.5089,-1.5068,-1.5073,-1.5081,-1.5093,-1.5152,-1.5204,-1.5148,-1.515,-1.5163,-1.5256,-1.5281,-1.529,-1.5381,-1.5327,-1.5332,-1.5336,-1.5338,-1.5526,-1.5528,0,0,0,0,0,0,-1.4922,-1.4942,-1.5085,-1.5092,-1.5003,-1.5085,-1.5099,-1.5131,-1.5204,-1.5214,-1.5164,-1.5164,-1.5272,-1.5283,-1.5294,-1.5371,-1.5333,-1.5339,-1.5342,-1.5525,-1.5527,-1.5528,0,0,0,0,0,0,-1.4917,-1.4934,-1.508,-1.5018,-1.5037,-1.509,-1.5126,-1.5134,-1.516,-1.5216,-1.5226,-1.5181,-1.5272,-1.5286,-1.5351,-1.5375,-1.5341,-1.5347,-1.5523,-1.5525,-1.5527,-1.5523,0,0,0,0,0,0,-1.4912,-1.4932,-1.4955,-1.5018,-1.504,-1.5134,-1.5128,-1.5137,-1.517,-1.5171,-1.5234,-1.5244,-1.5272,-1.5342,-1.5357,-1.5382,-1.5351,-1.5521,-1.5524,-1.5527,-1.5521,-1.5525,-1.5528,0,0,0,0,0,-1.4905,-1.4949,-1.4956,-1.4973,-1.507,-1.5136,-1.5148,-1.518,-1.5172,-1.5196,-1.5232,-1.5242,-1.537,-1.5348,-1.5365,-1.5393,-1.552,-1.5523,-1.5526,-1.552,-1.5524,-1.5528,0,0,0,0,0,0,-1.4886,-1.4957,-1.4966,-1.5032,-1.5078,-1.514,-1.5171,-1.5183,-1.5232,-1.5231,-1.5268,-1.5282,-1.5345,-1.5376,-1.535,-1.5456,-1.5445,-1.5451,-1.5434,-1.5439,-1.5442,-1.5434,-1.5356,0,0,0,0,0,-1.489,-1.4937,-1.4997,-1.5049,-1.5072,-1.5117,-1.5147,-1.5168,-1.5217,-1.5236,-1.5277,-1.5325,-1.5376,-1.5409,-1.5459,-1.5526,-1.5541,-1.5553,-1.5557,-1.5559,-1.5565,-1.5605,-1.5612,-1.5539,-1.5539,-1.5539,0,0,-1.4898,-1.4942,-1.497,-1.5047,-1.5085,-1.5134,-1.5133,-1.5185,-1.5222,-1.5244,-1.5308,-1.534,-1.5396,-1.5462,-1.5494,-1.5489,-1.5589,-1.5564,-1.5565,-1.557,-1.5609,-1.5616,-1.5622,-1.5542,-1.5541,-1.5541,0,0,-1.4937,-1.4975,-1.5024,-1.5063,-1.5121,-1.5151,-1.5163,-1.5224,-1.5246,-1.5311,-1.5329,-1.5375,-1.5461,-1.5501,-1.5532,-1.559,-1.5601,-1.5605,-1.5623,-1.5662,-1.5667,-1.5673,-1.5695,-1.5702,-1.5611,-1.5611,-1.5611,0,-1.494,-1.5014,-1.5048,-1.5099,-1.5133,-1.5156,-1.5207,-1.5242,-1.5314,-1.5337,-1.5331,-1.5443,-1.5481,-1.5559,-1.5573,-1.5597,-1.5613,-1.5598,-1.5664,-1.5669,-1.5675,-1.5696,-1.5704,-1.5611,-1.5611,-1.5611,-1.5611,0,-1.5016,-1.5067,-1.51,-1.5169,-1.5207,-1.5257,-1.5299,-1.5334,-1.5351,-1.5383,-1.545,-1.5498,-1.5559,-1.5579,-1.5596,-1.5659,-1.5655,-1.5656,-1.5646,-1.5681,-1.5702,-1.5711,-1.5611,-1.5611,-1.5611,-1.5611,0,0,-1.5046,-1.5134,-1.5146,-1.5179,-1.5245,-1.5286,-1.5339,-1.5399,-1.5429,-1.5477,-1.5524,-1.5598,-1.56,-1.5636,-1.5658,-1.5692,-1.5737,-1.5689,-1.5691,-1.5697,-1.5812,-1.5811,-1.582,-1.5744,-1.5746,-1.5747,-1.5808,0,-1.5095,-1.5189,-1.5222,-1.5301,-1.535,-1.5374,-1.542,-1.5466,-1.5497,-1.5544,-1.5579,-1.5632,-1.5629,-1.5652,-1.5686,-1.5724,-1.576,-1.572,-1.5789,-1.5791,-1.5775,-1.5831,-1.583,-1.5885,-1.5816,-1.5817,-1.5818,0,-1.5164,-1.5215,-1.5299,-1.5362,-1.5384,-1.5424,-1.5484,-1.5528,-1.5582,-1.5603,-1.5644,-1.5664,-1.5721,-1.5707,-1.5788,-1.5759,-1.579,-1.5813,-1.5816,-1.5824,-1.5807,-1.5842,-1.5903,-1.5911,-1.5831,-1.583,-1.5829,0,-1.518,-1.5269,-1.5332,-1.5359,-1.5433,-1.5462,-1.5494,-1.5547,-1.5582,-1.5634,-1.5657,-1.5715,-1.5747,-1.5791,-1.5828,-1.5814,-1.5905,-1.5894,-1.5925,-1.5924,-1.5944,-1.5942,-1.6011,-1.5961,-1.5961,-1.5961,-1.5961,0,-1.5231,-1.5282,-1.534,-1.5378,-1.5437,-1.5474,-1.5531,-1.5565,-1.5612,-1.5658,-1.5682,-1.5725,-1.577,-1.5819,-1.5847,-1.5911,-1.5924,-1.5943,-1.5951,-1.5942,-1.594,-1.5963,-1.596,-1.5963,-1.5963,-1.5962,-1.5962,0,-1.5259,-1.5299,-1.5369,-1.5434,-1.5452,-1.5492,-1.5549,-1.5588,-1.5621,-1.5679,-1.5695,-1.5747,-1.5806,-1.5847,-1.5922,-1.5942,-1.6011,-1.6017,-1.5993,-1.5996,-1.6026,-1.6023,-1.6113,-1.6128,-1.6067,-1.6067,-1.6068,0,-1.5289,-1.5329,-1.5399,-1.5432,-1.5465,-1.5518,-1.5554,-1.5593,-1.563,-1.5696,-1.5728,-1.5789,-1.584,-1.5934,-1.5979,-1.6037,-1.6046,-1.6073,-1.6054,-1.6045,-1.6048,-1.6046,-1.6051,-1.6076,-1.6076,-1.6077,-1.6077,0,-1.534,-1.5359,-1.5411,-1.547,-1.5513,-1.5562,-1.5611,-1.5636,-1.5684,-1.5725,-1.5787,-1.5826,-1.5905,-1.5966,-1.6029,-1.6063,-1.6079,-1.6083,-1.6094,-1.6086,-1.6071,-1.6081,-1.6002,-1.6081,-1.608,-1.608,-1.608,-1.608,-1.5371,-1.5409,-1.5465,-1.5522,-1.5564,-1.5609,-1.565,-1.5689,-1.5741,-1.5808,-1.5828,-1.5892,-1.5948,-1.6034,-1.607,-1.6121,-1.6119,-1.6134,-1.6138,-1.6141,-1.6142,-1.6062,-1.6133,-1.6133,-1.6133,-1.6133,-1.6133,0,-1.5425,-1.5463,-1.5515,-1.5584,-1.5629,-1.564,-1.5696,-1.5733,-1.579,-1.584,-1.5891,-1.5962,-1.6022,-1.6072,-1.6135,-1.6167,-1.6176,-1.6182,-1.618,-1.6188,-1.614,-1.6125,-1.6174,-1.6174,-1.6174,-1.6174,-1.6174,-1.6174,-1.5458,-1.5523,-1.5549,-1.5635,-1.5673,-1.5736,-1.5767,-1.581,-1.5851,-1.593,-1.598,-1.6013,-1.6064,-1.613,-1.6186,-1.62,-1.6222,-1.6227,-1.6242,-1.6196,-1.6191,-1.6187,-1.6174,-1.6231,-1.6231,-1.6287,-1.6287,-1.6287]}]]